Weather in Mir

Russia / Yaroslavl Oblast     58°27′20″N   39°25′42″E
temp.,
°C
wind,
m/s
gust,
m/s
humid.,
%
clouds,
%
prec.,
mm/h
press.,
hPa
HPBL,
m
25 february, thu
thu2500:00−13s4994100 0.5 1023504
03:00−13s51194100 3.3 1019435
06:00−13s41194100 2.1 1013455
09:00−11sse3695100 3.9 1010253
12:00−7sse2394100 0.4 1009193
15:00−5s119598 0.7 1010139
18:00−5se1297100 0.4 101145
21:00−6ese1297100 0.7 101259
26 february, fri
fri2600:00−6se2397100 0.1 101199
03:00−5se3597100 0.3 1009145
06:00−6se4896100 2.2 1006238
09:00−6se5995100 4.5 1002259
12:00−2sse4898100 3.4 998247
15:00+2wsw513100100 7.6 995633
18:00+1w51399100 0.9 993708
21:00+1w51198100 2.8 994670
27 february, sat
sat2700:00−8nw51192100 0.9 995559
03:00−11nnw4994100 1.2 999578
06:00−13n41092100 0.7 1001535
09:00−14n4991100 0.7 1005494
12:00−12n4789100 0.0 1007502
15:00−10n479099 0.0 1009515
18:00−12nnw2895100 0.0 1011208
21:00−14n259789 0.1 1013132
28 february, sun
sun2800:00−14nnw259767 0.1 1014144
03:00−14nw229777 0.2 101653
06:00−12nw249781 0.1 1016142
09:00−10n389487 0.1 1017371
12:00−7n369196 0.0 1017528
15:00−4nnw369098 0.1 1018577
18:00−4nw2594100 0.1 1019264
21:00−5nw2696100 0.1 1020286
1 march, mon
mon100:00−5w2397100 0.2 1021111
03:00−5w2596100 0.3 1022185
06:00−7w2497100 0.0 1022107
09:00−7wsw269578 0.0 1022204
12:00−3sw379321 0.0 1021420
15:00−2wsw489556 0.1 1019435
18:000wsw51295100 0.3 1016719
21:000w51298100 0.8 1014600